When you browse on this site, cookies collect data to enhance your experience and personalize the content and advertising you see.
Visit our Privacy Policy to learn more. By continuing to use the site, you agree to this use of cookies and data.
  • In Austria
  • List of Countries
  • For 7 days
  • Water Temperature
  • Weather Map
  • News
  • Weather Widgets
  • user-avatar
    Login

    Hourly Weather Megri

    Today, 27 May, Wednesday

    Time Temperature Precipitation Wind Pressure Humidity
    00:00 +12°C° 0 mm 3 mps 625 mmHg 67%
    01:00 +13°C° 0 mm 2 mps 625 mmHg 68%
    02:00 +12°C° 0 mm 2 mps 625 mmHg 68%
    03:00 +12°C° 0 mm 2 mps 625 mmHg 68%
    04:00 +13°C° 0 mm 2 mps 625 mmHg 67%
    05:00 +14°C° 0 mm 2 mps 626 mmHg 65%
    06:00 +14°C° 0 mm 2 mps 627 mmHg 64%
    07:00 +16°C° 0 mm 2 mps 627 mmHg 59%
    08:00 +18°C° 0 mm 2 mps 628 mmHg 54%
    09:00 +19°C° 0 mm 2 mps 628 mmHg 49%
    10:00 +20°C° 0 mm 2 mps 628 mmHg 46%
    11:00 +23°C° 0 mm 2 mps 628 mmHg 42%
    12:00 +24°C° 0 mm 2 mps 629 mmHg 38%
    13:00 +24°C° 0 mm 2 mps 628 mmHg 36%
    14:00 +25°C° 0 mm 2 mps 628 mmHg 34%
    15:00 +25°C° 0 mm 2 mps 628 mmHg 32%
    16:00 +24°C° 0 mm 2 mps 627 mmHg 36%
    17:00 +24°C° 0 mm 2 mps 627 mmHg 41%
    18:00 +23°C° 0 mm 2 mps 627 mmHg 45%
    19:00 +20°C° 0 mm 2 mps 626 mmHg 51%
    20:00 +18°C° 0 mm 2 mps 626 mmHg 58%
    21:00 +16°C° 0 mm 3 mps 625 mmHg 65%
    22:00 +16°C° 0 mm 2 mps 625 mmHg 65%
    23:00 +15°C° 0 mm 2 mps 625 mmHg 65%

    Tomorrow, 28 May, Thursday

    Time Temperature Precipitation Wind Pressure Humidity
    00:00 +15°C° 0 mm 2 mps 625 mmHg 66%
    01:00 +15°C° 0 mm 2 mps 624 mmHg 65%
    02:00 +14°C° 0 mm 2 mps 624 mmHg 64%
    03:00 +14°C° 0 mm 2 mps 624 mmHg 63%
    04:00 +15°C° 0 mm 1 mps 624 mmHg 61%
    05:00 +16°C° 0 mm 1 mps 625 mmHg 60%
    06:00 +18°C° 0 mm 1 mps 626 mmHg 58%
    07:00 +20°C° 0 mm 1 mps 626 mmHg 52%
    08:00 +22°C° 0 mm 1 mps 626 mmHg 45%
    09:00 +23°C° 0 mm 1 mps 627 mmHg 39%
    10:00 +24°C° 0 mm 1 mps 627 mmHg 35%
    11:00 +25°C° 0 mm 2 mps 627 mmHg 31%
    12:00 +27°C° 0 mm 3 mps 627 mmHg 26%
    13:00 +27°C° 0 mm 3 mps 627 mmHg 25%
    14:00 +27°C° 0 mm 3 mps 627 mmHg 24%
    15:00 +28°C° 0 mm 3 mps 626 mmHg 22%
    16:00 +27°C° 0 mm 2 mps 626 mmHg 27%
    17:00 +26°C° 0 mm 2 mps 626 mmHg 32%
    18:00 +25°C° 0 mm 2 mps 626 mmHg 37%
    19:00 +23°C° 0 mm 2 mps 625 mmHg 45%
    20:00 +20°C° 0 mm 2 mps 624 mmHg 52%
    21:00 +18°C° 0 mm 2 mps 624 mmHg 60%
    22:00 +18°C° 0 mm 2 mps 624 mmHg 59%
    23:00 +17°C° 0 mm 2 mps 623 mmHg 58%

    Day after tomorrow, 29 May, Friday

    Time Temperature Precipitation Wind Pressure Humidity
    00:00 +17°C° 0 mm 2 mps 623 mmHg 57%
    01:00 +17°C° 0 mm 2 mps 623 mmHg 55%
    02:00 +17°C° 0 mm 2 mps 622 mmHg 54%
    03:00 +16°C° 0 mm 1 mps 622 mmHg 52%
    04:00 +17°C° 0.1 mm 2 mps 622 mmHg 51%
    05:00 +18°C° 0.1 mm 2 mps 623 mmHg 49%
    06:00 +19°C° 0.1 mm 2 mps 623 mmHg 47%
    07:00 +21°C° 0 mm 3 mps 623 mmHg 41%
    08:00 +25°C° 0 mm 3 mps 624 mmHg 34%
    09:00 +27°C° 0 mm 4 mps 624 mmHg 28%
    10:00 +28°C° 0 mm 6 mps 624 mmHg 25%
    11:00 +29°C° 0 mm 7 mps 624 mmHg 23%
    12:00 +31°C° 0 mm 8 mps 625 mmHg 21%
    13:00 +31°C° 0 mm 8 mps 624 mmHg 20%
    14:00 +31°C° 0 mm 8 mps 624 mmHg 20%
    15:00 +31°C° 0 mm 9 mps 623 mmHg 19%
    16:00 +28°C° 0 mm 7 mps 623 mmHg 22%
    17:00 +27°C° 0 mm 6 mps 623 mmHg 26%
    18:00 +25°C° 0 mm 5 mps 622 mmHg 29%
    19:00 +23°C° 0 mm 4 mps 622 mmHg 29%
    20:00 +21°C° 0 mm 4 mps 622 mmHg 30%
    21:00 +19°C° 0 mm 3 mps 621 mmHg 30%
    22:00 +18°C° 0 mm 3 mps 621 mmHg 31%
    23:00 +18°C° 0 mm 2 mps 621 mmHg 32%

    30 May, Saturday

    Time Temperature Precipitation Wind Pressure Humidity
    00:00 +17°C° 0 mm 2 mps 620 mmHg 33%
    01:00 +17°C° 0 mm 2 mps 620 mmHg 35%
    02:00 +16°C° 0 mm 2 mps 620 mmHg 37%
    03:00 +15°C° 0 mm 2 mps 619 mmHg 39%
    04:00 +16°C° 0 mm 2 mps 620 mmHg 40%
    05:00 +17°C° 0 mm 2 mps 621 mmHg 42%
    06:00 +19°C° 0 mm 1 mps 622 mmHg 44%
    07:00 +19°C° 0 mm 2 mps 622 mmHg 38%
    08:00 +20°C° 0 mm 3 mps 623 mmHg 33%
    09:00 +22°C° 0 mm 3 mps 623 mmHg 28%
    10:00 +24°C° 0 mm 3 mps 623 mmHg 26%
    11:00 +23°C° 0 mm 4 mps 624 mmHg 24%
    12:00 +25°C° 0 mm 4 mps 624 mmHg 22%
    13:00 +26°C° 0 mm 4 mps 624 mmHg 20%
    14:00 +26°C° 0 mm 4 mps 624 mmHg 19%
    15:00 +26°C° 0 mm 4 mps 624 mmHg 17%
    16:00 +26°C° 0 mm 3 mps 623 mmHg 21%
    17:00 +25°C° 0 mm 3 mps 623 mmHg 24%
    18:00 +24°C° 0 mm 3 mps 623 mmHg 28%
    19:00 +21°C° 0 mm 2 mps 623 mmHg 34%
    20:00 +19°C° 0 mm 2 mps 623 mmHg 40%
    21:00 +18°C° 0 mm 1 mps 622 mmHg 45%
    22:00 +16°C° 0 mm 1 mps 622 mmHg 48%
    23:00 +15°C° 0 mm 1 mps 622 mmHg 51%

    31 May, Sunday

    Time Temperature Precipitation Wind Pressure Humidity
    00:00 +15°C° 0 mm 1 mps 622 mmHg 54%
    01:00 +14°C° 0 mm 1 mps 622 mmHg 57%
    02:00 +13°C° 0 mm 1 mps 622 mmHg 60%
    03:00 +13°C° 0 mm 1 mps 622 mmHg 63%
    04:00 +14°C° 0 mm 1 mps 622 mmHg 64%
    05:00 +14°C° 0 mm 1 mps 623 mmHg 65%
    06:00 +15°C° 0 mm 1 mps 624 mmHg 66%
    07:00 +18°C° 0 mm 1 mps 624 mmHg 59%
    08:00 +19°C° 0 mm 1 mps 625 mmHg 52%
    09:00 +20°C° 0 mm 1 mps 625 mmHg 46%
    10:00 +21°C° 0 mm 1 mps 625 mmHg 42%
    11:00 +23°C° 0 mm 1 mps 626 mmHg 38%
    12:00 +24°C° 0 mm 1 mps 626 mmHg 34%
    13:00 +24°C° 0 mm 2 mps 626 mmHg 32%
    14:00 +25°C° 0 mm 2 mps 625 mmHg 31%
    15:00 +25°C° 0 mm 2 mps 625 mmHg 30%
    16:00 +24°C° 0.1 mm 2 mps 625 mmHg 36%
    17:00 +22°C° 0.1 mm 3 mps 624 mmHg 42%
    18:00 +21°C° 0.1 mm 3 mps 624 mmHg 47%
    19:00 +19°C° 0 mm 3 mps 624 mmHg 56%
    20:00 +18°C° 0 mm 3 mps 624 mmHg 64%
    21:00 +16°C° 0 mm 3 mps 623 mmHg 73%
    22:00 +14°C° 0 mm 3 mps 623 mmHg 75%
    23:00 +15°C° 0 mm 2 mps 623 mmHg 77%

    1 June, Monday

    Time Temperature Precipitation Wind Pressure Humidity
    00:00 +14°C° 0 mm 2 mps 622 mmHg 79%
    01:00 +14°C° 0 mm 2 mps 622 mmHg 79%
    02:00 +14°C° 0 mm 2 mps 622 mmHg 79%
    03:00 +13°C° 0 mm 2 mps 622 mmHg 79%
    04:00 +14°C° 0 mm 2 mps 623 mmHg 77%
    05:00 +15°C° 0 mm 2 mps 623 mmHg 75%
    06:00 +15°C° 0 mm 2 mps 623 mmHg 73%
    07:00 +17°C° 0 mm 2 mps 624 mmHg 64%
    08:00 +20°C° 0 mm 1 mps 624 mmHg 55%
    09:00 +21°C° 0 mm 1 mps 625 mmHg 46%
    10:00 +23°C° 0 mm 2 mps 625 mmHg 40%
    11:00 +24°C° 0 mm 2 mps 625 mmHg 35%
    12:00 +25°C° 0 mm 2 mps 626 mmHg 30%
    13:00 +26°C° 0 mm 3 mps 625 mmHg 28%
    14:00 +26°C° 0 mm 3 mps 625 mmHg 27%
    15:00 +27°C° 0 mm 3 mps 625 mmHg 25%
    16:00 +26°C° 0 mm 3 mps 625 mmHg 28%
    17:00 +25°C° 0 mm 2 mps 624 mmHg 31%
    18:00 +25°C° 0 mm 2 mps 624 mmHg 34%
    19:00 +23°C° 0 mm 1 mps 624 mmHg 39%
    20:00 +21°C° 0 mm 1 mps 623 mmHg 44%
    21:00 +17°C° 0 mm 0 mps 622 mmHg 50%
    22:00 +16°C° 0 mm 0 mps 622 mmHg 51%
    23:00 +15°C° 0 mm 0 mps 622 mmHg 52%
    Show more